FW0009 Weather Reports


Display with metric or nautical units.
time (UTC)temp
F
wind
direction
speed
MPH
gust
MPH
rain 1hr
in
rain 24hr
in
rain mn
in
humidity
%
barometer
mb
20260503043115 58 233 0.0 2.0 0.00 0.00 0.00 38 1009.6
20260503041603 59 233 0.0 1.0 0.00 0.00 0.00 38 1009.6
20260503040002 60 232 0.0 0.0 0.00 0.00 0.00 35 1009.9
20260503034603 61 233 0.0 2.0 0.00 0.00 0.00 34 1009.8
20260503033002 63 232 0.0 1.0 0.00 0.00 0.00 33 1009.7
20260503031505 64 232 0.0 1.0 0.00 0.00 0.00 32 1009.4
20260503030114 65 232 0.0 1.0 0.00 0.00 0.00 31 1009.4
20260503024503 67 232 0.0 1.0 0.00 0.00 0.00 29 1009.5
20260503023115 67 232 0.0 2.0 0.00 0.00 0.00 27 1009.5
20260503021606 68 255 0.0 2.0 0.00 0.00 0.00 27 1009.6
20260503020003 69 236 0.0 5.0 0.00 0.00 0.00 26 1009.7
20260503014605 69 273 1.0 5.0 0.00 0.00 0.00 25 1009.6
20260503013009 70 250 2.0 7.0 0.00 0.00 0.00 24 1009.9
20260503011503 70 264 1.0 7.0 0.00 0.00 0.00 25 1010.0
20260503004503 72 241 4.0 8.0 0.00 0.00 0.00 25 1010.0
20260503003102 72 236 4.0 8.0 0.00 0.00 0.00 25 1010.4
20260503001604 73 276 4.0 10.0 0.00 0.00 0.00 25 1010.6
20260503000009 75 283 2.0 6.0 0.00 0.00 0.00 25 1010.9
20260502233003 76 273 3.0 7.0 0.00 0.00 0.00 26 1011.3
20260502231503 74 294 2.0 11.0 0.00 0.00 0.00 27 1011.5
20260502224506 75 207 3.0 9.0 0.00 0.00 0.00 26 1012.2
20260502223104 75 234 2.0 13.0 0.00 0.00 0.00 26 1012.5
20260502221605 75 207 3.0 8.0 0.00 0.00 0.00 27 1012.8
20260502220002 75 190 4.0 8.0 0.00 0.00 0.00 26 1013.2
20260502214609 74 183 4.0 9.0 0.00 0.00 0.00 27 1013.5
20260502213003 73 185 2.0 10.0 0.00 0.00 0.00 26 1013.7
20260502211508 73 343 2.0 5.0 0.00 0.00 0.00 28 1013.9
20260502210110 73 248 3.0 8.0 0.00 0.00 0.00 28 1014.4
20260502204503 73 255 2.0 7.0 0.00 0.00 0.00 27 1014.6
20260502203113 73 205 2.0 9.0 0.00 0.00 0.00 27 1014.8
20260502201602 72 221 2.0 9.0 0.00 0.00 0.00 27 1015.2
20260502200003 72 180 3.0 7.0 0.00 0.00 0.00 29 1015.3
20260502194602 70 266 3.0 8.0 0.00 0.00 0.00 28 1015.6
20260502193004 70 183 4.0 9.0 0.00 0.00 0.00 28 1016.1
20260502191502 68 180 1.0 7.0 0.00 0.00 0.00 31 1016.1
20260502190104 68 290 1.0 6.0 0.00 0.00 0.00 31 1016.5
20260502184503 68 173 3.0 7.0 0.00 0.00 0.00 30 1016.6
20260502183103 68 186 4.0 10.0 0.00 0.00 0.00 31 1016.8
20260502181602 67 200 4.0 8.0 0.00 0.00 0.00 32 1017.0
20260502163105 62 267 2.0 6.0 0.00 0.00 0.00 38 1018.4
20260502161603 61 187 3.0 8.0 0.00 0.00 0.00 41 1018.5
20260502151504 56 206 1.0 6.0 0.00 0.00 0.00 51 1019.1
20260502150116 54 229 1.0 5.0 0.00 0.00 0.00 53 1019.3
20260502123111 39 282 0.0 1.0 0.00 0.00 0.00 76 1019.3
20260502121604 39 282 0.0 2.0 0.00 0.00 0.00 76 1019.0
20260502114604 38 282 0.0 2.0 0.00 0.00 0.00 77 1018.9
20260502113003 38 282 0.0 2.0 0.00 0.00 0.00 77 1018.8
20260502111503 38 282 0.0 1.0 0.00 0.00 0.00 77 1018.8
20260502110104 39 282 0.0 2.0 0.00 0.00 0.00 77 1018.9
20260502104511 39 290 0.0 0.0 0.00 0.00 0.00 76 1018.8
20260502103114 39 290 0.0 2.0 0.00 0.00 0.00 75 1018.8
20260502101603 40 290 0.0 2.0 0.00 0.00 0.00 75 1018.8
20260502070006 43 11 0.0 0.0 0.00 0.00 0.00 72 1018.3
20260502064610 43 11 0.0 0.0 0.00 0.00 0.00 72 1018.2
20260502063042 43 11 0.0 0.0 0.00 0.00 0.00 71 1018.1
20260502061605 44 11 0.0 1.0 0.00 0.00 0.00 70 1017.9
20260502060003 45 11 0.0 0.0 0.00 0.00 0.00 68 1017.9
20260502054605 46 11 0.0 0.0 0.00 0.00 0.00 67 1017.8
20260502053003 46 11 0.0 1.0 0.00 0.00 0.00 66 1017.6
20260502051503 47 11 0.0 0.0 0.00 0.00 0.00 65 1017.5
20260502044502 48 11 0.0 0.0 0.00 0.00 0.00 65 1017.4